Location: Unspecified
(48.9757°N, 0.0000°E)
Time: 20:12:10
(UTC+00:00)

Envisat - Visible Passes

Search period start: 20 August 2019 00:00
Search period end: 30 August 2019 00:00
Orbit: 764 x 766 km, 98.1° (Epoch: 20 August)

Date Brightness Start Highest point End Pass type
(mag) Time Alt. Az. Time Alt. Az. Time Alt. Az.
21 Aug 6.0 19:41:29 10° WSW 19:44:19 15° W 19:47:11 10° NW visible
24 Aug 5.8 19:29:27 10° SW 19:32:56 18° W 19:36:26 10° NW visible
26 Aug 6.3 19:57:37 10° W 19:58:49 11° W 20:00:02 10° WNW visible
29 Aug 6.0 19:44:53 10° WSW 19:47:24 14° W 19:49:56 10° NW visible
